STARLINK-30241, 57298

Orbit data source: Space-Track

STARLINK-30241, 57298 is a payload satellite owned by SpaceX/Seattle (US) in LEO that was launched on Mon, 10 Jul 2023 UTC via an FALCON 9 launch vehicle from the Air Force Eastern Test Range (AFETR). Payload-class satellites include a variety of spacecraft equipped with specific instruments for various scientific and technological missions. These include communications satellites like Starlink; space stations such as the ISS; scientific satellites like the Hubble; Earth observation satellites from companies like Planet Labs, Umbra, and HawkEye 360; GPS; miniature CubeSats for education and research; and military/defense satellites.

Loading next visibility...
Identifier
57298, 2023-096J
Orbit
LEO
Country
Flag of USUS
Related business
Manufacturer
SpaceX/Seattle
Mission
Partially operational Commercial Communications
Bus & Motor
STARLINK V2M, Unknown motor
Mass
730 kg wet, ~700 kg dry
Launch date (UTC)
2023-07-10 (2 years ago)
Launch vehicle
FALCON 9
Launch site
Air Force Eastern Test Range (AFETR)
Object type
Payload
Rocket body
Debris
Shape & HBR
Box + 2 Pan, 17.7 m
Radar Cross Section
33.884 m², Large (>1 m²)

Expand to show TLE details & history
Last TLE update: 14 hours ago

TLE from 14 hours ago
0 STARLINK-30241
1 57298U 23096J   25341.00002315  .00295074  00000-0  55965-2 0  9996
2 57298  42.9876 327.3867 0029342 115.1642 330.9055 15.46051337  5741
Epoch: 2025-12-07T00:00Z
TLE epoch observation values (Epoch: 2025-12-07T00:00:02.000Z)
Latitude
43.01101°
Longitude
-24.23618°
Altitude
413.96 km
Speed
7.678 km/s
True Right ascension
03h 27m 10s
True Declination
42° 49' 51"
Sunlit
Object was in full shadow at epoch
Visualization orbit readout
Latitude
Unknown
Longitude
Unknown
Altitude
Unknown
Speed
Unknown
Apparent Right ascension
Unknown
Apparent Declination
Unknown
Sunlit
N/A
Visualization observer readout
Local Sidereal Time
12:21:31
Azimuth
Unknown
Elevation
Unknown
Doppler factor
Unknown
Orbital elements
Apogee altitude
450.231 km
Perigee altitude
410.276 km
Semi-major axis
6,808.391 km
Eccentricity
0.00293
Inclination
42.9876°
RAAN
327.3867°
Arg. of periapsis
115.1642°
True anomaly
330.74148°
Mean anomaly
330.9055°
Eccentric anomaly
330.82354°
Mean motion
3.86346 °/min
Orbital period
93.18 mins
BSTAR
0.0055965
Loading maneuver chart data...
Computing Atmospheric mass density...
Loading historical data...
Loading historical data...
Loading historical data...
Loading historical data...
Loading historical data...
Loading historical data...
Loading historical data...

Documentation

Showing up to 5 results
|